| time (UTC) | temp F | wind direction | speed knots | gust knots | rain 1hr in | rain 24hr in | rain mn in | humidity % | barometer mb |
| 20260506085030 | 50 | 170 | 1.7 | 6.1 | 0.00 | 0.00 | 0.00 | 37 | 1013.8 |
| 20260506084025 | 49 | 214 | 2.6 | 6.1 | 0.00 | 0.00 | 0.00 | 36 | 1013.9 |
| 20260506083039 | 49 | 237 | 1.7 | 5.2 | 0.00 | 0.00 | 0.00 | 38 | 1014.0 |
| 20260506082041 | 49 | 166 | 1.7 | 5.2 | 0.00 | 0.00 | 0.00 | 38 | 1014.0 |
| 20260506081031 | 49 | 148 | 0.9 | 3.5 | 0.00 | 0.00 | 0.00 | 41 | 1013.9 |
| 20260506073032 | 46 | 218 | 1.7 | 3.5 | 0.00 | 0.00 | 0.00 | 44 | 1014.1 |
| 20260506072028 | 46 | 242 | 1.7 | 2.6 | 0.00 | 0.00 | 0.00 | 44 | 1014.0 |
| 20260506071022 | 47 | 190 | 0.9 | 2.6 | 0.00 | 0.00 | 0.00 | 43 | 1014.0 |
| 20260506062019 | 42 | 237 | 1.7 | 2.6 | 0.00 | 0.00 | 0.00 | 54 | 1013.9 |
| 20260506061034 | 41 | 225 | 2.6 | 3.5 | 0.00 | 0.00 | 0.00 | 59 | 1013.8 |
| 20260506051026 | 36 | 227 | 1.7 | 2.6 | 0.00 | 0.00 | 0.00 | 73 | 1013.6 |
| 20260506045037 | 34 | 229 | 0.9 | 1.7 | 0.00 | 0.01 | 0.00 | 76 | 1013.5 |
| 20260506044032 | 32 | 197 | 0.0 | 0.9 | 0.00 | 0.01 | 0.00 | 82 | 1013.6 |
| 20260506043028 | 31 | 0.0 | 0.0 | 0.00 | 0.01 | 0.00 | 83 | 1013.5 | |
| 20260506042022 | 31 | 0.0 | 0.0 | 0.00 | 0.01 | 0.00 | 83 | 1013.5 | |
| 20260506041018 | 31 | 184 | 0.0 | 0.9 | 0.00 | 0.01 | 0.00 | 85 | 1013.4 |
| 20260506040034 | 29 | 0.0 | 0.0 | 0.00 | 0.01 | 0.00 | 91 | 1013.3 | |
| 20260506035029 | 27 | 0.0 | 0.0 | 0.00 | 0.01 | 0.00 | 93 | 1013.3 | |
| 20260506034044 | 26 | 0.0 | 0.0 | 0.00 | 0.01 | 0.00 | 93 | 1013.2 | |
| 20260506033019 | 26 | 0.0 | 0.0 | 0.00 | 0.01 | 0.00 | 92 | 1013.1 | |
| 20260506032035 | 26 | 171 | 0.0 | 0.9 | 0.00 | 0.01 | 0.00 | 94 | 1012.9 |
| 20260506031030 | 25 | 0.0 | 0.0 | 0.00 | 0.01 | 0.00 | 93 | 1012.8 | |
| 20260506030026 | 26 | 0.0 | 0.0 | 0.00 | 0.01 | 0.00 | 92 | 1012.8 | |
| 20260506025041 | 27 | 0.0 | 0.0 | 0.00 | 0.01 | 0.00 | 91 | 1012.7 | |
| 20260506024017 | 27 | 169 | 0.9 | 0.9 | 0.00 | 0.01 | 0.00 | 90 | 1012.8 |
| 20260506023032 | 28 | 0.0 | 0.0 | 0.00 | 0.01 | 0.00 | 90 | 1012.7 | |
| 20260506022027 | 28 | 0.0 | 0.0 | 0.00 | 0.01 | 0.00 | 89 | 1012.7 | |
| 20260506021022 | 28 | 0.0 | 0.0 | 0.00 | 0.01 | 0.00 | 87 | 1012.4 | |
| 20260506020058 | 29 | 0.0 | 0.0 | 0.00 | 0.01 | 0.00 | 86 | 1012.5 | |
| 20260506015033 | 30 | 175 | 0.0 | 0.9 | 0.00 | 0.01 | 0.00 | 84 | 1012.4 |
| 20260506014029 | 30 | 215 | 0.9 | 1.7 | 0.00 | 0.01 | 0.00 | 82 | 1012.2 |
| 20260506013043 | 30 | 222 | 0.0 | 1.7 | 0.00 | 0.01 | 0.00 | 83 | 1012.1 |
| 20260506012039 | 30 | 208 | 0.0 | 1.7 | 0.00 | 0.01 | 0.00 | 83 | 1012.1 |
| 20260506011115 | 31 | 195 | 0.0 | 1.7 | 0.00 | 0.01 | 0.00 | 80 | 1012.1 |
| 20260506010049 | 33 | 223 | 0.9 | 1.7 | 0.00 | 0.01 | 0.00 | 77 | 1012.0 |
| 20260506005025 | 33 | 249 | 1.7 | 3.5 | 0.00 | 0.01 | 0.00 | 75 | 1011.9 |
| 20260506004020 | 33 | 232 | 0.9 | 2.6 | 0.00 | 0.01 | 0.00 | 76 | 1011.8 |
| 20260506003056 | 33 | 232 | 1.7 | 2.6 | 0.00 | 0.01 | 0.00 | 76 | 1011.7 |
| 20260506002031 | 33 | 226 | 1.7 | 2.6 | 0.00 | 0.01 | 0.00 | 77 | 1011.4 |
| 20260506001027 | 33 | 226 | 0.9 | 1.7 | 0.00 | 0.01 | 0.00 | 77 | 1011.5 |
| 20260506000022 | 33 | 211 | 0.0 | 0.9 | 0.00 | 0.01 | 0.00 | 78 | 1011.4 |
| 20260505235018 | 33 | 213 | 0.0 | 0.9 | 0.00 | 0.02 | 0.00 | 78 | 1011.2 |
| 20260505234033 | 34 | 219 | 0.9 | 1.7 | 0.00 | 0.03 | 0.00 | 77 | 1011.3 |
| 20260505233048 | 34 | 244 | 1.7 | 2.6 | 0.00 | 0.04 | 0.00 | 77 | 1011.1 |
| 20260505232024 | 34 | 228 | 0.9 | 2.6 | 0.00 | 0.06 | 0.00 | 76 | 1011.2 |
| 20260505231040 | 34 | 219 | 0.9 | 1.7 | 0.00 | 0.07 | 0.00 | 75 | 1011.0 |
| 20260505230035 | 34 | 215 | 0.9 | 2.6 | 0.00 | 0.11 | 0.00 | 76 | 1011.0 |
| 20260505225030 | 34 | 236 | 1.7 | 2.6 | 0.00 | 0.15 | 0.00 | 75 | 1011.1 |
| 20260505224025 | 34 | 237 | 0.9 | 2.6 | 0.00 | 0.19 | 0.00 | 76 | 1011.2 |
| 20260505223020 | 35 | 239 | 0.9 | 2.6 | 0.00 | 0.23 | 0.00 | 75 | 1011.0 |
| 20260505222016 | 35 | 226 | 0.9 | 2.6 | 0.00 | 0.26 | 0.00 | 74 | 1010.9 |
| 20260505221032 | 35 | 230 | 1.7 | 3.5 | 0.00 | 0.30 | 0.00 | 74 | 1010.9 |
| 20260505220027 | 35 | 246 | 1.7 | 6.1 | 0.00 | 0.34 | 0.34 | 73 | 1010.8 |
| 20260505215023 | 36 | 193 | 0.9 | 1.7 | 0.00 | 0.36 | 0.34 | 73 | 1010.7 |
| 20260505214018 | 37 | 246 | 1.7 | 6.1 | 0.00 | 0.37 | 0.34 | 71 | 1010.6 |
| 20260505213034 | 37 | 243 | 1.7 | 3.5 | 0.00 | 0.38 | 0.34 | 71 | 1010.6 |
| 20260505212028 | 36 | 227 | 0.9 | 1.7 | 0.00 | 0.40 | 0.34 | 72 | 1010.5 |
| 20260505211024 | 38 | 234 | 1.7 | 3.5 | 0.00 | 0.40 | 0.34 | 69 | 1010.3 |
| 20260505210039 | 38 | 207 | 0.0 | 0.9 | 0.00 | 0.40 | 0.34 | 69 | 1010.1 |
| 20260505205035 | 38 | 229 | 0.9 | 1.7 | 0.00 | 0.40 | 0.34 | 68 | 1010.1 |
| 20260505204030 | 38 | 222 | 1.7 | 2.6 | 0.00 | 0.40 | 0.34 | 67 | 1010.1 |
| 20260505203025 | 38 | 248 | 1.7 | 5.2 | 0.00 | 0.40 | 0.34 | 66 | 1009.9 |
| 20260505202021 | 39 | 232 | 1.7 | 3.5 | 0.00 | 0.40 | 0.34 | 64 | 1010.0 |
| 20260505201017 | 39 | 258 | 1.7 | 3.5 | 0.00 | 0.40 | 0.34 | 63 | 1009.8 |
| 20260505200032 | 39 | 254 | 3.5 | 7.0 | 0.00 | 0.40 | 0.34 | 61 | 1009.9 |
| 20260505195028 | 39 | 237 | 2.6 | 5.2 | 0.00 | 0.40 | 0.34 | 63 | 1010.0 |
| 20260505194022 | 38 | 214 | 0.9 | 1.7 | 0.00 | 0.40 | 0.34 | 67 | 1009.8 |
| 20260505193018 | 37 | 205 | 0.9 | 0.9 | 0.00 | 0.40 | 0.34 | 70 | 1009.8 |
| 20260505192033 | 38 | 0.0 | 0.0 | 0.00 | 0.40 | 0.34 | 66 | 1009.6 | |
| 20260505191028 | 38 | 0.0 | 0.0 | 0.00 | 0.40 | 0.34 | 66 | 1009.6 | |
| 20260505190023 | 39 | 0.0 | 0.0 | 0.00 | 0.40 | 0.34 | 63 | 1009.3 | |
| 20260505185019 | 40 | 206 | 0.0 | 0.9 | 0.00 | 0.40 | 0.34 | 61 | 1009.4 |
| 20260505184033 | 41 | 215 | 0.0 | 1.7 | 0.00 | 0.40 | 0.34 | 59 | 1009.2 |
| 20260505183029 | 42 | 222 | 1.7 | 2.6 | 0.00 | 0.40 | 0.34 | 56 | 1009.2 |
| 20260505182025 | 42 | 260 | 1.7 | 5.2 | 0.00 | 0.40 | 0.34 | 55 | 1009.0 |
| 20260505181021 | 43 | 252 | 3.5 | 5.2 | 0.00 | 0.40 | 0.34 | 54 | 1009.1 |
| 20260505180016 | 43 | 258 | 2.6 | 7.0 | 0.00 | 0.40 | 0.34 | 53 | 1009.1 |
| 20260505175031 | 44 | 250 | 2.6 | 6.1 | 0.00 | 0.40 | 0.34 | 51 | 1009.1 |
| 20260505174026 | 44 | 232 | 0.9 | 3.5 | 0.00 | 0.40 | 0.34 | 48 | 1008.8 |
| 20260505173042 | 45 | 238 | 0.9 | 3.5 | 0.00 | 0.40 | 0.34 | 49 | 1008.8 |
| 20260505172017 | 46 | 273 | 1.7 | 5.2 | 0.00 | 0.40 | 0.34 | 48 | 1008.7 |
| 20260505171114 | 46 | 237 | 1.7 | 6.1 | 0.00 | 0.40 | 0.34 | 50 | 1008.8 |
| 20260505170049 | 47 | 252 | 3.5 | 9.6 | 0.00 | 0.40 | 0.34 | 49 | 1008.8 |
| 20260505165024 | 47 | 280 | 4.3 | 9.6 | 0.00 | 0.40 | 0.34 | 45 | 1008.4 |
| 20260505164120 | 46 | 228 | 1.7 | 3.5 | 0.00 | 0.40 | 0.34 | 47 | 1008.2 |
| 20260505163036 | 46 | 229 | 0.9 | 2.6 | 0.00 | 0.40 | 0.34 | 46 | 1008.3 |
| 20260505162031 | 47 | 272 | 2.6 | 5.2 | 0.00 | 0.40 | 0.34 | 44 | 1008.2 |
| 20260505161026 | 48 | 260 | 4.3 | 7.8 | 0.00 | 0.40 | 0.34 | 41 | 1007.9 |
| 20260505153027 | 49 | 256 | 6.1 | 12.2 | 0.00 | 0.40 | 0.34 | 39 | 1007.8 |
| 20260505152023 | 48 | 256 | 4.3 | 7.8 | 0.00 | 0.40 | 0.34 | 45 | 1008.0 |
| 20260505151018 | 46 | 249 | 7.0 | 12.2 | 0.00 | 0.40 | 0.34 | 49 | 1008.0 |
| 20260505125033 | 46 | 230 | 3.5 | 6.1 | 0.00 | 0.41 | 0.34 | 54 | 1007.4 |
| 20260505124028 | 45 | 245 | 3.5 | 7.8 | 0.00 | 0.41 | 0.34 | 56 | 1007.3 |
| 20260505123024 | 45 | 233 | 3.5 | 11.3 | 0.00 | 0.41 | 0.34 | 56 | 1007.4 |
| 20260505122020 | 47 | 234 | 5.2 | 11.3 | 0.00 | 0.41 | 0.34 | 53 | 1007.4 |
| 20260505121035 | 45 | 247 | 4.3 | 8.7 | 0.00 | 0.41 | 0.34 | 57 | 1007.4 |
| 20260505120030 | 44 | 226 | 2.6 | 7.0 | 0.00 | 0.41 | 0.34 | 63 | 1007.3 |
| 20260505115026 | 43 | 238 | 4.3 | 9.6 | 0.00 | 0.41 | 0.34 | 64 | 1007.3 |
| 20260505114021 | 44 | 251 | 6.1 | 12.2 | 0.00 | 0.41 | 0.34 | 59 | 1007.3 |
| 20260505113022 | 43 | 240 | 4.3 | 9.6 | 0.00 | 0.41 | 0.34 | 65 | 1007.2 |
| 20260505112032 | 46 | 262 | 6.1 | 13.0 | 0.00 | 0.41 | 0.34 | 54 | 1007.0 |
| 20260505111028 | 48 | 249 | 3.5 | 7.0 | 0.00 | 0.41 | 0.34 | 49 | 1006.7 |
| 20260505102046 | 47 | 249 | 5.2 | 8.7 | 0.00 | 0.41 | 0.34 | 52 | 1006.7 |
| 20260505101020 | 46 | 256 | 4.3 | 8.7 | 0.00 | 0.41 | 0.34 | 52 | 1006.7 |
| 20260505100017 | 48 | 241 | 1.7 | 3.5 | 0.00 | 0.41 | 0.34 | 52 | 1006.5 |
| 20260505095031 | 47 | 251 | 5.2 | 8.7 | 0.00 | 0.41 | 0.34 | 50 | 1006.7 |
| 20260505094148 | 45 | 280 | 5.2 | 14.8 | 0.00 | 0.41 | 0.34 | 54 | 1006.6 |
| 20260505093022 | 46 | 277 | 3.5 | 7.8 | 0.00 | 0.41 | 0.34 | 52 | 1006.6 |
| 20260505092017 | 45 | 251 | 2.6 | 5.2 | 0.00 | 0.41 | 0.34 | 55 | 1006.6 |
| 20260505091034 | 46 | 258 | 3.5 | 7.8 | 0.00 | 0.41 | 0.34 | 54 | 1006.6 |
| 20260505090029 | 45 | 276 | 3.5 | 7.0 | 0.00 | 0.41 | 0.34 | 54 | 1006.6 |